| time (UTC) | temp F | wind direction | speed MPH | gust MPH | rain 1hr in | rain 24hr in | rain mn in | humidity % | barometer mb |
| 20260504002622 | 71 | 360 | 0.0 | 11.0 | 0.00 | 0.00 | 0.00 | 27 | 1009.9 |
| 20260504002021 | 71 | 360 | 7.0 | 12.0 | 0.00 | 0.00 | 0.00 | 27 | 1010.0 |
| 20260504001604 | 72 | 360 | 2.0 | 12.0 | 0.00 | 0.00 | 0.00 | 27 | 1010.0 |
| 20260504001025 | 72 | 360 | 5.0 | 10.0 | 0.00 | 0.00 | 0.00 | 27 | 1010.1 |
| 20260504000527 | 72 | 360 | 0.0 | 9.0 | 0.00 | 0.00 | 0.00 | 26 | 1010.0 |
| 20260504000050 | 72 | 360 | 0.0 | 10.0 | 0.00 | 0.00 | 0.00 | 26 | 1010.1 |
| 20260503235531 | 72 | 360 | 1.0 | 12.0 | 0.00 | 0.00 | 0.00 | 26 | 1010.1 |
| 20260503235038 | 73 | 360 | 2.0 | 12.0 | 0.00 | 0.00 | 0.00 | 26 | 1010.1 |
| 20260503234600 | 73 | 360 | 2.0 | 10.0 | 0.00 | 0.00 | 0.00 | 25 | 1010.1 |
| 20260503234102 | 73 | 360 | 0.0 | 9.0 | 0.00 | 0.00 | 0.00 | 26 | 1010.1 |
| 20260503233619 | 73 | 360 | 5.0 | 9.0 | 0.00 | 0.00 | 0.00 | 26 | 1010.2 |
| 20260503233024 | 73 | 360 | 2.0 | 7.0 | 0.00 | 0.00 | 0.00 | 26 | 1010.2 |
| 20260503232606 | 73 | 360 | 0.0 | 0.0 | 0.00 | 0.00 | 0.00 | 25 | 1010.3 |
| 20260503232123 | 74 | 360 | 0.0 | 0.0 | 0.00 | 0.00 | 0.00 | 25 | 1010.4 |
| 20260503231542 | 74 | 360 | 0.0 | 0.0 | 0.00 | 0.00 | 0.00 | 25 | 1010.4 |
| 20260503231029 | 73 | 360 | 0.0 | 0.0 | 0.00 | 0.00 | 0.00 | 25 | 1010.5 |
| 20260503230551 | 73 | 360 | 0.0 | 1.0 | 0.00 | 0.00 | 0.00 | 26 | 1010.5 |
| 20260503230053 | 74 | 360 | 0.0 | 4.0 | 0.00 | 0.00 | 0.00 | 25 | 1010.5 |
| 20260503225535 | 74 | 360 | 0.0 | 5.0 | 0.00 | 0.00 | 0.00 | 25 | 1010.6 |
| 20260503225037 | 74 | 360 | 1.0 | 12.0 | 0.00 | 0.00 | 0.00 | 25 | 1010.6 |
| 20260503224539 | 73 | 360 | 3.0 | 12.0 | 0.00 | 0.00 | 0.00 | 26 | 1010.6 |
| 20260503224101 | 73 | 360 | 3.0 | 12.0 | 0.00 | 0.00 | 0.00 | 26 | 1010.6 |
| 20260503223522 | 73 | 360 | 0.0 | 12.0 | 0.00 | 0.00 | 0.00 | 26 | 1010.7 |
| 20260503223105 | 73 | 360 | 7.0 | 14.0 | 0.00 | 0.00 | 0.00 | 26 | 1010.8 |
| 20260503222545 | 72 | 360 | 0.0 | 14.0 | 0.00 | 0.00 | 0.00 | 26 | 1010.9 |
| 20260503222046 | 72 | 360 | 0.0 | 10.0 | 0.00 | 0.00 | 0.00 | 26 | 1010.9 |
| 20260503221527 | 72 | 360 | 0.0 | 11.0 | 0.00 | 0.00 | 0.00 | 26 | 1011.0 |
| 20260503221111 | 72 | 360 | 8.0 | 11.0 | 0.00 | 0.00 | 0.00 | 26 | 1011.0 |
| 20260503220550 | 72 | 360 | 0.0 | 14.0 | 0.00 | 0.00 | 0.00 | 26 | 1011.0 |
| 20260503220031 | 72 | 360 | 9.0 | 14.0 | 0.00 | 0.00 | 0.00 | 26 | 1011.0 |
| 20260503215534 | 72 | 360 | 0.0 | 7.0 | 0.00 | 0.00 | 0.00 | 26 | 1011.2 |
| 20260503214536 | 72 | 360 | 0.0 | 1.0 | 0.00 | 0.00 | 0.00 | 26 | 1011.4 |
| 20260503214039 | 72 | 360 | 0.0 | 0.0 | 0.00 | 0.00 | 0.00 | 26 | 1011.4 |
| 20260503213540 | 72 | 360 | 0.0 | 0.0 | 0.00 | 0.00 | 0.00 | 26 | 1011.5 |
| 20260503213043 | 71 | 360 | 0.0 | 0.0 | 0.00 | 0.00 | 0.00 | 26 | 1011.6 |
| 20260503212525 | 72 | 360 | 0.0 | 3.0 | 0.00 | 0.00 | 0.00 | 25 | 1011.7 |
| 20260503212027 | 72 | 360 | 0.0 | 11.0 | 0.00 | 0.00 | 0.00 | 25 | 1011.8 |
| 20260503211530 | 72 | 360 | 3.0 | 11.0 | 0.00 | 0.00 | 0.00 | 26 | 1011.9 |
| 20260503211053 | 72 | 360 | 0.0 | 9.0 | 0.00 | 0.00 | 0.00 | 26 | 1012.0 |
| 20260503210534 | 71 | 360 | 0.0 | 4.0 | 0.00 | 0.00 | 0.00 | 26 | 1011.9 |
| 20260503205537 | 72 | 360 | 1.0 | 10.0 | 0.00 | 0.00 | 0.00 | 26 | 1012.1 |
| 20260503205024 | 71 | 360 | 0.0 | 10.0 | 0.00 | 0.00 | 0.00 | 27 | 1012.1 |
| 20260503204526 | 71 | 360 | 3.0 | 15.0 | 0.00 | 0.00 | 0.00 | 26 | 1012.3 |
| 20260503204030 | 71 | 360 | 3.0 | 15.0 | 0.00 | 0.00 | 0.00 | 26 | 1012.4 |
| 20260503203532 | 71 | 360 | 0.0 | 5.0 | 0.00 | 0.00 | 0.00 | 26 | 1012.3 |
| 20260503203055 | 70 | 360 | 0.0 | 5.0 | 0.00 | 0.00 | 0.00 | 27 | 1012.5 |
| 20260503202616 | 70 | 360 | 0.0 | 2.0 | 0.00 | 0.00 | 0.00 | 26 | 1012.6 |
| 20260503202037 | 70 | 360 | 0.0 | 9.0 | 0.00 | 0.00 | 0.00 | 27 | 1012.7 |
| 20260503201619 | 69 | 360 | 0.0 | 9.0 | 0.00 | 0.00 | 0.00 | 27 | 1012.8 |
| 20260503201040 | 70 | 360 | 5.0 | 7.0 | 0.00 | 0.00 | 0.00 | 27 | 1012.8 |
| 20260503200602 | 69 | 360 | 1.0 | 6.0 | 0.00 | 0.00 | 0.00 | 27 | 1012.8 |
| 20260503200044 | 70 | 360 | 0.0 | 12.0 | 0.00 | 0.00 | 0.00 | 26 | 1012.9 |
| 20260503195525 | 71 | 360 | 3.0 | 12.0 | 0.00 | 0.00 | 0.00 | 26 | 1013.0 |
| 20260503195028 | 71 | 360 | 5.0 | 12.0 | 0.00 | 0.00 | 0.00 | 27 | 1013.1 |
| 20260503194530 | 70 | 360 | 0.0 | 15.0 | 0.00 | 0.00 | 0.00 | 27 | 1013.1 |
| 20260503194034 | 70 | 360 | 3.0 | 15.0 | 0.00 | 0.00 | 0.00 | 28 | 1013.2 |
| 20260503193536 | 70 | 360 | 0.0 | 11.0 | 0.00 | 0.00 | 0.00 | 26 | 1013.3 |
| 20260503193059 | 69 | 360 | 4.0 | 12.0 | 0.00 | 0.00 | 0.00 | 27 | 1013.4 |
| 20260503192541 | 69 | 360 | 5.0 | 12.0 | 0.00 | 0.00 | 0.00 | 27 | 1013.4 |
| 20260503192023 | 69 | 360 | 2.0 | 10.0 | 0.00 | 0.00 | 0.00 | 26 | 1013.5 |
| 20260503191529 | 69 | 360 | 2.0 | 9.0 | 0.00 | 0.00 | 0.00 | 26 | 1013.6 |
| 20260503191108 | 69 | 360 | 3.0 | 10.0 | 0.00 | 0.00 | 0.00 | 25 | 1013.7 |
| 20260503190608 | 69 | 360 | 3.0 | 10.0 | 0.00 | 0.00 | 0.00 | 26 | 1013.7 |
| 20260503190029 | 69 | 360 | 6.0 | 10.0 | 0.00 | 0.00 | 0.00 | 25 | 1013.9 |
| 20260503185033 | 69 | 360 | 1.0 | 4.0 | 0.00 | 0.00 | 0.00 | 25 | 1014.0 |
| 20260503184534 | 69 | 360 | 0.0 | 0.0 | 0.00 | 0.00 | 0.00 | 26 | 1014.1 |
| 20260503184057 | 69 | 360 | 0.0 | 0.0 | 0.00 | 0.00 | 0.00 | 29 | 1014.1 |
| 20260503183541 | 68 | 360 | 0.0 | 0.0 | 0.00 | 0.00 | 0.00 | 29 | 1014.1 |
| 20260503183040 | 68 | 360 | 0.0 | 0.0 | 0.00 | 0.00 | 0.00 | 28 | 1014.3 |
| 20260503182523 | 67 | 360 | 0.0 | 3.0 | 0.00 | 0.00 | 0.00 | 28 | 1014.4 |
| 20260503182047 | 68 | 360 | 0.0 | 3.0 | 0.00 | 0.00 | 0.00 | 30 | 1014.5 |
| 20260503181609 | 68 | 360 | 0.0 | 0.0 | 0.00 | 0.00 | 0.00 | 31 | 1014.5 |
| 20260503181029 | 67 | 360 | 0.0 | 0.0 | 0.00 | 0.00 | 0.00 | 32 | 1014.6 |
| 20260503180550 | 67 | 360 | 0.0 | 0.0 | 0.00 | 0.00 | 0.00 | 32 | 1014.6 |
| 20260503180112 | 67 | 360 | 0.0 | 0.0 | 0.00 | 0.00 | 0.00 | 32 | 1014.8 |
| 20260503175553 | 67 | 360 | 0.0 | 4.0 | 0.00 | 0.00 | 0.00 | 33 | 1014.9 |
| 20260503175034 | 66 | 360 | 0.0 | 4.0 | 0.00 | 0.00 | 0.00 | 33 | 1014.9 |
| 20260503174537 | 66 | 360 | 0.0 | 2.0 | 0.00 | 0.00 | 0.00 | 33 | 1015.0 |
| 20260503174101 | 66 | 360 | 0.0 | 0.0 | 0.00 | 0.00 | 0.00 | 32 | 1015.1 |
| 20260503173602 | 66 | 360 | 0.0 | 7.0 | 0.00 | 0.00 | 0.00 | 33 | 1015.1 |
| 20260503173043 | 65 | 360 | 0.0 | 7.0 | 0.00 | 0.00 | 0.00 | 34 | 1015.2 |
| 20260503172106 | 65 | 360 | 2.0 | 9.0 | 0.00 | 0.00 | 0.00 | 35 | 1015.3 |
| 20260503171606 | 65 | 360 | 4.0 | 9.0 | 0.00 | 0.00 | 0.00 | 37 | 1015.3 |
| 20260503171026 | 65 | 360 | 3.0 | 6.0 | 0.00 | 0.00 | 0.00 | 36 | 1015.5 |
| 20260503170548 | 65 | 360 | 0.0 | 4.0 | 0.00 | 0.00 | 0.00 | 36 | 1015.4 |
| 20260503150557 | 57 | 360 | 0.0 | 0.0 | 0.00 | 0.00 | 0.00 | 44 | 1016.7 |
| 20260503131102 | 44 | 360 | 0.0 | 0.0 | 0.00 | 0.00 | 0.00 | 57 | 1017.0 |
| 20260503130526 | 44 | 360 | 0.0 | 0.0 | 0.00 | 0.00 | 0.00 | 58 | 1016.9 |
| 20260503130105 | 43 | 360 | 0.0 | 0.0 | 0.00 | 0.00 | 0.00 | 61 | 1016.9 |
| 20260503110606 | 42 | 360 | 0.0 | 0.0 | 0.00 | 0.00 | 0.00 | 60 | 1016.7 |
| 20260503110107 | 42 | 360 | 0.0 | 0.0 | 0.00 | 0.00 | 0.00 | 58 | 1016.7 |
| 20260503081531 | 48 | 360 | 0.0 | 0.0 | 0.00 | 0.00 | 0.00 | 48 | 1015.1 |
| 20260503081054 | 49 | 360 | 0.0 | 0.0 | 0.00 | 0.00 | 0.00 | 47 | 1016.0 |
| 20260503080615 | 49 | 360 | 0.0 | 0.0 | 0.00 | 0.00 | 0.00 | 47 | 1015.2 |
| 20260503072552 | 50 | 360 | 0.0 | 0.0 | 0.00 | 0.00 | 0.00 | 42 | 1015.6 |
| 20260503072114 | 51 | 360 | 0.0 | 0.0 | 0.00 | 0.00 | 0.00 | 42 | 1015.6 |
| 20260503071616 | 51 | 360 | 0.0 | 0.0 | 0.00 | 0.00 | 0.00 | 42 | 1015.7 |
| 20260503071037 | 50 | 360 | 0.0 | 0.0 | 0.00 | 0.00 | 0.00 | 42 | 1015.7 |
| 20260503070538 | 50 | 360 | 0.0 | 0.0 | 0.00 | 0.00 | 0.00 | 42 | 1015.7 |
| 20260503055031 | 55 | 360 | 0.0 | 7.0 | 0.00 | 0.00 | 0.00 | 36 | 1015.7 |
| 20260503054554 | 56 | 360 | 0.0 | 6.0 | 0.00 | 0.00 | 0.00 | 34 | 1015.6 |
| 20260503053530 | 54 | 360 | 1.0 | 6.0 | 0.00 | 0.00 | 0.00 | 35 | 1015.5 |
| 20260503053053 | 54 | 360 | 0.0 | 3.0 | 0.00 | 0.00 | 0.00 | 36 | 1015.4 |
| 20260503052554 | 54 | 360 | 0.0 | 5.0 | 0.00 | 0.00 | 0.00 | 36 | 1015.7 |
| 20260503052040 | 54 | 360 | 3.0 | 5.0 | 0.00 | 0.00 | 0.00 | 35 | 1015.6 |
| 20260503051602 | 54 | 360 | 1.0 | 2.0 | 0.00 | 0.00 | 0.00 | 35 | 1015.5 |
| 20260503051120 | 55 | 360 | 0.0 | 0.0 | 0.00 | 0.00 | 0.00 | 34 | 1015.4 |
| 20260503050559 | 55 | 360 | 0.0 | 0.0 | 0.00 | 0.00 | 0.00 | 34 | 1015.3 |
| 20260503050101 | 55 | 360 | 0.0 | 0.0 | 0.00 | 0.00 | 0.00 | 34 | 1015.3 |
| 20260503045546 | 55 | 360 | 0.0 | 0.0 | 0.00 | 0.00 | 0.00 | 33 | 1015.3 |
| 20260503045028 | 55 | 360 | 0.0 | 5.0 | 0.00 | 0.00 | 0.00 | 33 | 1015.4 |
| 20260503044530 | 55 | 360 | 0.0 | 7.0 | 0.00 | 0.00 | 0.00 | 33 | 1015.3 |
| 20260503044034 | 54 | 360 | 0.0 | 7.0 | 0.00 | 0.00 | 0.00 | 34 | 1015.3 |
| 20260503043555 | 53 | 360 | 0.0 | 10.0 | 0.00 | 0.00 | 0.00 | 35 | 1015.3 |
| 20260503043036 | 53 | 360 | 5.0 | 10.0 | 0.00 | 0.00 | 0.00 | 35 | 1015.2 |
| 20260503042538 | 53 | 360 | 3.0 | 7.0 | 0.00 | 0.00 | 0.00 | 35 | 1015.2 |
| 20260503042041 | 52 | 360 | 4.0 | 6.0 | 0.00 | 0.00 | 0.00 | 35 | 1015.2 |
| 20260503041543 | 52 | 360 | 4.0 | 6.0 | 0.00 | 0.00 | 0.00 | 35 | 1015.1 |
| 20260503041026 | 52 | 360 | 2.0 | 7.0 | 0.00 | 0.00 | 0.00 | 36 | 1015.1 |
| 20260503040547 | 52 | 360 | 0.0 | 7.0 | 0.00 | 0.00 | 0.00 | 36 | 1015.0 |
| 20260503040029 | 52 | 360 | 5.0 | 7.0 | 0.00 | 0.00 | 0.00 | 34 | 1014.9 |
| 20260503035612 | 53 | 360 | 4.0 | 7.0 | 0.00 | 0.00 | 0.00 | 34 | 1014.9 |
| 20260503035033 | 54 | 360 | 2.0 | 5.0 | 0.00 | 0.00 | 0.00 | 34 | 1014.9 |
| 20260503034615 | 54 | 360 | 0.0 | 3.0 | 0.00 | 0.00 | 0.00 | 33 | 1014.7 |
| 20260503034057 | 54 | 360 | 0.0 | 4.0 | 0.00 | 0.00 | 0.00 | 33 | 1014.8 |
| 20260503033559 | 54 | 360 | 2.0 | 4.0 | 0.00 | 0.00 | 0.00 | 33 | 1014.6 |
| 20260503033041 | 54 | 360 | 0.0 | 4.0 | 0.00 | 0.00 | 0.00 | 32 | 1014.6 |
| 20260503032543 | 54 | 360 | 0.0 | 6.0 | 0.00 | 0.00 | 0.00 | 33 | 1014.6 |
| 20260503032126 | 55 | 360 | 5.0 | 8.0 | 0.00 | 0.00 | 0.00 | 32 | 1014.4 |
| 20260503031526 | 55 | 360 | 5.0 | 8.0 | 0.00 | 0.00 | 0.00 | 32 | 1014.4 |
| 20260503031034 | 56 | 360 | 5.0 | 7.0 | 0.00 | 0.00 | 0.00 | 31 | 1014.4 |
| 20260503030537 | 57 | 360 | 4.0 | 6.0 | 0.00 | 0.00 | 0.00 | 30 | 1014.4 |
| 20260503030120 | 59 | 360 | 4.0 | 6.0 | 0.00 | 0.00 | 0.00 | 29 | 1014.4 |
| 20260503025540 | 61 | 360 | 4.0 | 5.0 | 0.00 | 0.00 | 0.00 | 27 | 1014.4 |
| 20260503025123 | 62 | 360 | 3.0 | 5.0 | 0.00 | 0.00 | 0.00 | 26 | 1014.3 |
| 20260503024604 | 64 | 360 | 0.0 | 1.0 | 0.00 | 0.00 | 0.00 | 25 | 1014.3 |
| 20260503024122 | 65 | 360 | 0.0 | 2.0 | 0.00 | 0.00 | 0.00 | 24 | 1014.2 |
| 20260503023621 | 65 | 360 | 1.0 | 5.0 | 0.00 | 0.00 | 0.00 | 24 | 1014.2 |
| 20260503023124 | 65 | 360 | 2.0 | 6.0 | 0.00 | 0.00 | 0.00 | 23 | 1014.2 |
| 20260503022544 | 66 | 360 | 3.0 | 6.0 | 0.00 | 0.00 | 0.00 | 23 | 1014.1 |
| 20260503022030 | 67 | 360 | 2.0 | 5.0 | 0.00 | 0.00 | 0.00 | 23 | 1014.1 |
| 20260503021553 | 68 | 360 | 0.0 | 3.0 | 0.00 | 0.00 | 0.00 | 22 | 1014.0 |
| 20260503021034 | 68 | 360 | 0.0 | 3.0 | 0.00 | 0.00 | 0.00 | 22 | 1013.9 |
| 20260503020555 | 69 | 360 | 1.0 | 2.0 | 0.00 | 0.00 | 0.00 | 22 | 1013.9 |
| 20260503015536 | 70 | 360 | 0.0 | 2.0 | 0.00 | 0.00 | 0.00 | 21 | 1013.8 |
| 20260503015037 | 71 | 360 | 0.0 | 7.0 | 0.00 | 0.00 | 0.00 | 21 | 1013.7 |
| 20260503014600 | 71 | 360 | 1.0 | 7.0 | 0.00 | 0.00 | 0.00 | 20 | 1013.6 |
| 20260503014122 | 71 | 360 | 0.0 | 4.0 | 0.00 | 0.00 | 0.00 | 20 | 1013.5 |
| 20260503013601 | 72 | 360 | 0.0 | 0.0 | 0.00 | 0.00 | 0.00 | 20 | 1013.4 |
| 20260503013042 | 72 | 360 | 0.0 | 4.0 | 0.00 | 0.00 | 0.00 | 19 | 1013.4 |
| 20260503012524 | 72 | 360 | 0.0 | 5.0 | 0.00 | 0.00 | 0.00 | 20 | 1013.5 |
| 20260503012027 | 72 | 360 | 1.0 | 8.0 | 0.00 | 0.00 | 0.00 | 20 | 1013.5 |
| 20260503011610 | 72 | 360 | 0.0 | 9.0 | 0.00 | 0.00 | 0.00 | 19 | 1013.5 |
| 20260503011031 | 72 | 360 | 2.0 | 9.0 | 0.00 | 0.00 | 0.00 | 19 | 1013.5 |
| 20260503010552 | 73 | 360 | 3.0 | 11.0 | 0.00 | 0.00 | 0.00 | 19 | 1012.7 |
| 20260503010033 | 73 | 360 | 5.0 | 12.0 | 0.00 | 0.00 | 0.00 | 19 | 1012.7 |
| 20260503005556 | 73 | 360 | 3.0 | 13.0 | 0.00 | 0.00 | 0.00 | 19 | 1012.8 |
| 20260503005058 | 73 | 360 | 2.0 | 12.0 | 0.00 | 0.00 | 0.00 | 19 | 1012.8 |
| 20260503004536 | 73 | 360 | 6.0 | 12.0 | 0.00 | 0.00 | 0.00 | 19 | 1012.9 |
| 20260503004038 | 74 | 360 | 7.0 | 10.0 | 0.00 | 0.00 | 0.00 | 18 | 1013.0 |
| 20260503003540 | 74 | 360 | 0.0 | 0.0 | 0.00 | 0.00 | 0.00 | 18 | 1013.0 |
| 20260503003044 | 74 | 360 | 0.0 | 0.0 | 0.00 | 0.00 | 0.00 | 18 | 1013.0 |